Regional Weather Roundup
Issued by NWS

Home | Current Version | Previous Version | Graphics & Text | Print | Product List | Glossary On
Versions: 1 2 3 4 5 6 7 8 9 10 11 12 13 14 15 16 17 18 19 20 21 22 23 24 25 26 27
000
ASUS45 KBOU 270907
RWRCO

WEATHER ROUNDUP FOR COLORADO
NATIONAL WEATHER SERVICE DENVER/BOULDER CO
300 AM MDT TUE JUN 27 2017

NOTE: "FAIR" INDICATES FEW OR NO CLOUDS BELOW 12000 FEET WITH NO
SIGNIFICANT WEATHER AND/OR OBSTRUCTIONS TO VISIBILITY.

COZ001>005-013-030-031-271000-
...NORTHWEST COLORADO...

CITY           SKY/WX    TMP DP  RH WIND       PRES   REMARKS
CRAIG          FAIR      54  38  54 VRB5      30.06F
HAYDEN         FAIR      57  34  41 E12       30.09S
MEEKER         FAIR      56  34  43 NE9       30.08F
RABBIT EARS PA FAIR      55  25  30 SW6       30.40F
STEAMBOAT SPGS FAIR      51  35  55 CALM      30.12R
WALDEN         FAIR      50  36  57 SE7       30.23F
$$

COZ006>008-011-271000-
...WEST CENTRAL VALLEYS...

CITY           SKY/WX    TMP DP  RH WIND       PRES   REMARKS
GRAND JUNCTION FAIR      72  30  21 E6        29.94F
MONTROSE       FAIR      70  32  24 SE6       30.05F
EAGLE          FAIR      53  30  41 CALM      30.17F
RIFLE          FAIR      61  29  29 S3        30.04F
DELTA          FAIR      70  33  25 E8        30.02R
NUCLA          FAIR      72  30  21 SW3       30.12R
$$

COZ017>023-064>068-271000-
...SOUTHWEST COLORADO...

CITY           SKY/WX    TMP DP  RH WIND       PRES   REMARKS
DURANGO        FAIR      54  37  52 SE3       30.24R
CORTEZ         FAIR      73  38  27 NE8       30.12S
PAGOSA SPRINGS FAIR      55  34  45 NE7       30.34F
TELLURIDE      FAIR      65  30  26 SE13G18   30.37F
WOLF CREEK PAS FAIR      45  32  61 SW20G32   30.62F
$$

COZ009-010-012-014-032>034-037-058>063-271000-
...CENTRAL COLORADO...

CITY           SKY/WX    TMP DP  RH WIND       PRES   REMARKS
ASPEN          FAIR      52  29  41 SW6       30.21F
BUENA VISTA    FAIR      50  35  55 CALM      30.30F
COPPER MTN     FAIR      54  32  43 S20       30.53F
BERTHOUD PASS  FAIR      43  30  61 W8        30.56F
COTTONWOOD PAS FAIR      55  32  41 CALM      30.41F
GUNNISON       FAIR      52  33  48 N13G20    30.27S
KREMMLING      NOT AVBL
LEADVILLE      FAIR      42  34  73 NE6       30.40F
MONARCH PASS   FAIR      46  30  53 S14       30.66F
SALIDA         FAIR      54  37  53 SW3       30.35F
SUNLIGHT       FAIR      52  21  30 SW12G18   30.46F
WILKERSON PASS FAIR      46  30  53 SW12G17   30.52F
$$

COZ069>075-271000-
...SAN LUIS VALLEY/SANGRE DE CRISTO MOUNTAINS...

CITY           SKY/WX    TMP DP  RH WIND       PRES   REMARKS
ALAMOSA        FAIR      53  41  63 SE9       30.29S
DEL NORTE      FAIR      46  37  72 N3        30.33S
LA VETA PASS   FAIR      48  32  53 SW25G35   30.55F
SAGUACHE       FAIR      46  32  57 N6        30.33S
$$

COZ035-036-038>040-271000-
...NORTHERN COLORADO FRONT RANGE...

CITY           SKY/WX    TMP DP  RH WIND       PRES   REMARKS
DENVER INTL AP MOCLDY    69  42  37 SW16      30.04F
DMNS CITY PARK   N/A     63  45  52 E7        30.04F
AURORA         MOCLDY    67  43  41 S20       30.06F
FRONT RANGE AP FAIR      68  43  40 S15G22    30.06F
ERIE MUNI ARPT FAIR      58  52  79 CALM      30.04F
BOULDER MUN AP FAIR      63  50  63 CALM      30.05F
CENTENNIAL     FAIR      65  43  44 S12       30.08F
BROOMFIELD     FAIR      61  50  67 CALM      30.08F
FORT COLLINS   FAIR      58  54  86 N7        30.04F
LONGMONT       FAIR      60  53  77 CALM      30.06S
$$

COZ041-046-047-076>085-087-088-271000-
...PIKES PEAK/PALMER DIVIDE AND SOUTHERN FOOTHILLS...

CITY           SKY/WX    TMP DP  RH WIND       PRES   REMARKS
COLO. SPRINGS  FAIR      59  44  57 E6        30.17F
A. F. ACADEMY  FAIR      49  45  85 N8        30.18F
SCHRIEVER AFB  FAIR      55  43  62 S5        30.17F
CHEYENNE MTN   FAIR      65  35  32 SW8       30.15F
ELLICOTT       FAIR     N/A N/A N/A SW6       30.16F
FALCON           N/A     56  40  55 SW7       30.22F
FORT CARSON    FAIR      62  41  45 S3        30.13F
LIMON          FAIR      53  53 100 SE5       30.13F
MONUMENT HILL  FAIR      57  39  51 S15       30.20F
CANON CITY     CLEAR     61  45  55 W7        30.11F
WALSENBURG     FAIR      57  43  58 SW7       30.16F
TRINIDAD       FAIR      62  47  57 SW12      30.16F
$$

COZ042>045-048>051-090-091-271000-
...NORTHEAST COLORADO...

CITY           SKY/WX    TMP DP  RH WIND       PRES   REMARKS
GREELEY ARPT   FAIR      59  56  89 E8        30.02F
AKRON          CLOUDY    61  57  87 SE23G29   30.07F
BURLINGTON     CLOUDY    60  59  96 SE15      30.07F
WRAY           FAIR      59  55  88 SE10      30.07F
YUMA           CLOUDY    55  50  82 SE9       30.07F
STERLING       FAIR      59  55  88 S13G18    30.04F
HOLYOKE        NOT AVBL
FORT MORGAN    FAIR      60  56  86 SE13G18   30.05F
$$

COZ086-089-092>099-271000-
...SOUTHEAST COLORADO...

CITY           SKY/WX    TMP DP  RH WIND       PRES   REMARKS
PUEBLO         FAIR      66  45  46 S8        30.05F
LA JUNTA       FAIR      60  48  64 NW5       30.07F
LAMAR          FAIR      60  57  89 MISG      30.04R
SPRINGFIELD      N/A     66  46  48 W10       30.08R
$$




USA.gov is the U.S. government's official web portal to all federal, state and local government web resources and services.